Погода в Торчине

Россия / Владимирская область     56°33′22″N   40°33′02″E
темп.,
°C
ветер,
м/с
пор.,
м/с
влажн.,
%
обл.,
%
осадки,
мм/ч
давл.,
гПа
погр.,
м
12 апреля, пн
пн1200:00+4ююв22875 0.0 103412
03:00+3ююв22895 0.0 103525
06:00+4юв2286100 0.0 103527
09:00+9вюв4973100 0.0 1036371
12:00+12вюв6961100 0.0 1034724
15:00+12в71059100 0.0 1034753
18:00+10вюв61272100 0.0 1032529
21:00+8вюв51279100 0.0 1032439
13 апреля, вт
вт1300:00+6вюв41191100 0.0 1031280
03:00+5вюв399776 0.0 1030198
06:00+6юв31095100 0.0 1029180
09:00+13ююв5106887 0.0 1028342
12:00+18ю6942100 0.0 1027862
15:00+20ю683394 0.0 10261639
18:00+17ююв484319 0.0 1025191
21:00+12ююв4105772 0.0 1025145
14 апреля, ср
ср1400:00+10ююв411648 0.0 1025193
03:00+8ююв310730 0.0 1025155
06:00+7ююв387558 0.0 1024130
09:00+12ююв5958100 0.0 1024329
12:00+17ю5841100 0.0 10221100
15:00+19ю5734100 0.0 10201747
18:00+16ююв364896 0.0 1020142
21:00+11ююв345997 0.0 102057
15 апреля, чт
чт1500:00+10ююв2262100 0.0 102019
03:00+8ююв2266100 0.0 101912
06:00+8юв2271100 0.0 101915
09:00+12ююв2358100 0.0 1019202
12:00+16ююв2247100 0.0 1019570
15:00+18юз114199 0.0 10181008
18:00+15сз3556100 0.0 1018105
21:00+11св3668100 0.0 1018115
16 апреля, пт
пт1600:00+10ссв497894 0.0 1019233
03:00+9св51086100 0.0 1020346
06:00+6св4989100 0.0 1021343
09:00+9св577684 0.0 1022556
12:00+12св666360 0.0 1023964
15:00+11св676790 0.0 1024976
18:00+9св59685 0.0 1025821
21:00+6св497219 0.0 1026264